STARLINK-30083 (56295 NORAD) Tracking and Keplerian Element Data

This shows tracking and keplerian element data for the satellite.

Feedback or suggestion? Click here.




ElementValue
Catalog56295
NameSTARLINK-30083
Epoch Orbit327
Epoch Day127.25001157
Epoch Year2023
RAAN95.459
Inclination43.0016
Eccentricity0.0002721
Argument of Perigee205.7124
Mean Anonmoly36.5079
Mean Motion15.78955036
Decay Rate0.00291788
L11 56295U 23056K 23127.25001157 .00291788 00000+0 15445-2 0 9994
L22 56295 43.0016 95.4590 0002721 205.7124 36.5079 15.78955036 3279



Live tracking and technical data element details for STARLINK-30083 (NORAD 56295). STARLINK-30083 can be tracked NOW for your location showing map with azimuth and elevation plus other details from your city location.







IsCatalogInMostPopularTable: catalog: 56295, numindb: 2
Update: records affected: 1



GetName: 56295 STARLINK-30083

Hit Count: updated at: Sat, 03 Jun 2023 18:28:16 GMT